Weather History for Point Pleasant, WV

Change the Weather History Date:

Sunday, February 17, 2013

  Actual Average (KHTS) Record (KHTS)
Temperature  
Mean Temperature 25 °F 38 °F  
Max Temperature 33 °F 47 °F 70 °F (1975)
Min Temperature 17 °F 28 °F -4 °F (1958)
Degree Days  
Heating Degree Days 40 27  
Month to date heating degree days 493  
Since 1 July heating degree days 3217  
Cooling Degree Days 0 0  
Month to date cooling degree days 0  
Year to date cooling degree days 0  
Moisture  
Dew Point 10 °F    
Average Humidity 54    
Maximum Humidity 79    
Minimum Humidity 35    
Precipitation  
Precipitation 0.00 in 0.11 in 1.46 in (1956)
Month to date precipitation 1.81  
Year to date precipitation 4.78  
Snow  
Snow 0.00 in - - ()
Month to date snowfall  
Since 1 September snowfall  
Snow Depth -    
Sea Level Pressure  
Sea Level Pressure 30.20 in    
Wind  
Wind Speed 5 mph (WNW)    
Max Wind Speed 9 mph    
Max Gust Speed 17 mph    
Visibility 10 miles    
Events      
T = Trace of Precipitation, MM = Missing Value Source: NWS Daily Summary

Daily Weather History Graph

Daily Weather History Graph

Search for Another Location

Airport:

Trip Planner

Search our weather history database for the weather conditions in past years. The results will help you decide how hot, cold, wet, or windy it might be!

Date:

Astronomy

Feb. 17, 2013 Rise Set
Actual Time 7:16 AM EST 6:08 PM EST
Civil Twilight 6:49 AM EST 6:35 PM EST
Nautical Twilight 6:18 AM EST 7:06 PM EST
Astronomical Twilight 5:47 AM EST 7:37 PM EST
Moon 11:13 AM EST 12:58 AM EST
Length of Visible Light 11h 45m
Length of Day
10h 51m
Waxing Crescent, 49% of the Moon is Illuminated
Feb 17
Waxing Crescent
Feb 17
First Quarter
Feb 25
Full
Mar 4
Last Quarter
Mar 11
New

Hourly Weather History & Observations

Time (EST) Temp. Windchill Dew Point Humidity Pressure Visibility Wind Dir Wind Speed Gust Speed Precip Events Conditions
12:15 AM 24.8 °F 16.9 °F 12.2 °F 59% 30.08 in 10.0 mi WNW 6.9 mph - N/A   Mostly Cloudy
12:35 AM 23.0 °F 15.8 °F 12.2 °F 63% 30.08 in 10.0 mi West 5.8 mph - N/A   Scattered Clouds
12:55 AM 23.0 °F 17.0 °F 12.2 °F 63% 30.08 in 10.0 mi WNW 4.6 mph - N/A   Scattered Clouds
1:15 AM 23.0 °F 17.0 °F 12.2 °F 63% 30.10 in 10.0 mi WNW 4.6 mph - N/A   Mostly Cloudy
1:35 AM 23.0 °F 18.4 °F 15.8 °F 74% 30.10 in 10.0 mi WNW 3.5 mph - N/A   Mostly Cloudy
1:55 AM 23.0 °F 15.8 °F 14.0 °F 68% 30.10 in 10.0 mi West 5.8 mph - N/A   Scattered Clouds
2:15 AM 23.0 °F 14.7 °F 10.4 °F 59% 30.10 in 10.0 mi West 6.9 mph - N/A   Scattered Clouds
2:35 AM 21.2 °F 13.6 °F 8.6 °F 58% 30.10 in 10.0 mi WNW 5.8 mph - N/A   Scattered Clouds
2:55 AM 21.2 °F 12.6 °F 5.0 °F 50% 30.11 in 10.0 mi WNW 6.9 mph - N/A   Scattered Clouds
3:15 AM 21.2 °F 14.9 °F 5.0 °F 50% 30.11 in 10.0 mi WNW 4.6 mph - N/A   Scattered Clouds
3:35 AM 21.2 °F 13.6 °F 5.0 °F 50% 30.11 in 10.0 mi West 5.8 mph - N/A   Clear
3:55 AM 19.4 °F 12.8 °F 5.0 °F 54% 30.11 in 10.0 mi West 4.6 mph - N/A   Clear
4:15 AM 19.4 °F 12.8 °F 5.0 °F 54% 30.12 in 10.0 mi WNW 4.6 mph - N/A   Clear
4:35 AM 19.4 °F 12.8 °F 5.0 °F 54% 30.12 in 10.0 mi West 4.6 mph - N/A   Clear
4:55 AM 19.4 °F 14.3 °F 6.8 °F 58% 30.12 in 10.0 mi West 3.5 mph - N/A   Clear
5:15 AM 19.4 °F 14.3 °F 6.8 °F 58% 30.13 in 10.0 mi West 3.5 mph - N/A   Clear
5:35 AM 19.4 °F 11.5 °F 8.6 °F 63% 30.13 in 10.0 mi West 5.8 mph - N/A   Clear
5:55 AM 19.4 °F 14.3 °F 8.6 °F 63% 30.14 in 10.0 mi West 3.5 mph - N/A   Clear
6:15 AM 19.4 °F 11.5 °F 8.6 °F 63% 30.15 in 10.0 mi West 5.8 mph - N/A   Clear
6:35 AM 19.4 °F 14.3 °F 8.6 °F 63% 30.15 in 10.0 mi West 3.5 mph - N/A   Clear
6:55 AM 17.6 °F 12.3 °F 8.6 °F 68% 30.16 in 10.0 mi WSW 3.5 mph - N/A   Clear
7:15 AM 17.6 °F 12.3 °F 8.6 °F 68% 30.16 in 10.0 mi West 3.5 mph - N/A   Clear
7:35 AM 17.6 °F - 8.6 °F 68% 30.17 in 10.0 mi Calm Calm - N/A   Clear
7:55 AM 19.4 °F 11.5 °F 10.4 °F 68% 30.18 in 10.0 mi West 5.8 mph - N/A   Clear
8:15 AM 19.4 °F 14.3 °F 10.4 °F 68% 30.18 in 10.0 mi West 3.5 mph - N/A   Clear
8:35 AM 21.2 °F 12.6 °F 10.4 °F 63% 30.19 in 10.0 mi West 6.9 mph - N/A   Clear
8:55 AM 23.0 °F 13.9 °F 10.4 °F 59% 30.20 in 10.0 mi West 8.1 mph - N/A   Clear
9:15 AM 24.8 °F 19.1 °F 10.4 °F 54% 30.20 in 10.0 mi WNW 4.6 mph - N/A   Clear
9:35 AM 26.6 °F 19.1 °F 12.2 °F 55% 30.21 in 10.0 mi WNW 6.9 mph - N/A   Clear
9:55 AM 26.6 °F 17.5 °F 12.2 °F 55% 30.21 in 10.0 mi West 9.2 mph - N/A   Clear
10:15 AM 28.4 °F 21.2 °F 12.2 °F 51% 30.22 in 10.0 mi WNW 6.9 mph - N/A   Scattered Clouds
10:35 AM 28.4 °F 21.2 °F 12.2 °F 51% 30.22 in 10.0 mi NW 6.9 mph - N/A   Scattered Clouds
10:55 AM 30.2 °F 22.6 °F 12.2 °F 47% 30.23 in 10.0 mi West 8.1 mph - N/A   Scattered Clouds
11:15 AM 30.2 °F 23.4 °F 12.2 °F 47% 30.23 in 10.0 mi West 6.9 mph - N/A   Scattered Clouds
11:35 AM 32.0 °F 26.4 °F 10.4 °F 41% 30.23 in 10.0 mi West 5.8 mph - N/A   Scattered Clouds
11:55 AM 28.4 °F 24.6 °F 10.4 °F 47% 30.23 in 10.0 mi West 3.5 mph - N/A   Scattered Clouds
12:15 PM 28.4 °F 20.4 °F 8.6 °F 43% 30.23 in 10.0 mi WNW 8.1 mph - N/A   Scattered Clouds
12:35 PM 32.0 °F 26.4 °F 10.4 °F 41% 30.23 in 10.0 mi NNW 5.8 mph - N/A   Scattered Clouds
12:55 PM 32.0 °F 24.2 °F 8.6 °F 38% 30.23 in 10.0 mi WNW 9.2 mph - N/A   Scattered Clouds
1:15 PM 32.0 °F 25.6 °F 8.6 °F 38% 30.22 in 10.0 mi WSW 6.9 mph - N/A   Scattered Clouds
1:35 PM 32.0 °F 24.2 °F 8.6 °F 38% 30.22 in 10.0 mi WNW 9.2 mph 16.1 mph N/A   Clear
1:55 PM 30.2 °F 25.4 °F 8.6 °F 40% 30.22 in 10.0 mi WNW 4.6 mph - N/A   Scattered Clouds
2:15 PM 32.0 °F 25.6 °F 8.6 °F 38% 30.22 in 10.0 mi West 6.9 mph - N/A   Scattered Clouds
2:35 PM 32.0 °F 25.6 °F 8.6 °F 38% 30.22 in 10.0 mi WNW 6.9 mph 17.3 mph N/A   Scattered Clouds
2:55 PM 30.2 °F 23.4 °F 8.6 °F 40% 30.22 in 10.0 mi West 6.9 mph - N/A   Scattered Clouds
3:15 PM 30.2 °F 26.7 °F 10.4 °F 44% 30.22 in 10.0 mi WNW 3.5 mph - N/A   Scattered Clouds
3:35 PM 32.0 °F 27.5 °F 8.6 °F 38% 30.21 in 10.0 mi WNW 4.6 mph - N/A   Scattered Clouds
3:55 PM 33.8 °F 26.4 °F 8.6 °F 35% 30.22 in 10.0 mi WNW 9.2 mph - N/A   Scattered Clouds
4:15 PM 32.0 °F 25.6 °F 8.6 °F 38% 30.21 in 10.0 mi West 6.9 mph - N/A   Scattered Clouds
4:35 PM 32.0 °F 28.7 °F 8.6 °F 38% 30.22 in 10.0 mi NW 3.5 mph - N/A   Scattered Clouds
4:55 PM 32.0 °F 26.4 °F 8.6 °F 38% 30.22 in 10.0 mi West 5.8 mph - N/A   Scattered Clouds
5:15 PM 32.0 °F 27.5 °F 8.6 °F 38% 30.22 in 10.0 mi West 4.6 mph - N/A   Clear
5:35 PM 30.2 °F 23.4 °F 6.8 °F 37% 30.22 in 10.0 mi WNW 6.9 mph - N/A   Clear
5:55 PM 30.2 °F 25.4 °F 6.8 °F 37% 30.23 in 10.0 mi WNW 4.6 mph - N/A   Clear
6:15 PM 30.2 °F 25.4 °F 8.6 °F 40% 30.24 in 10.0 mi WNW 4.6 mph - N/A   Clear
6:35 PM 28.4 °F - 8.6 °F 43% 30.24 in 10.0 mi Calm Calm - N/A   Clear
7:15 PM 26.6 °F - 8.6 °F 47% 30.25 in 10.0 mi Calm Calm - N/A   Clear
7:35 PM 26.6 °F - 10.4 °F 51% 30.25 in 10.0 mi Calm Calm - N/A   Clear
7:55 PM 26.6 °F - 10.4 °F 51% 30.26 in 10.0 mi Calm Calm - N/A   Clear
8:15 PM 24.8 °F - 12.2 °F 59% 30.26 in 10.0 mi Calm Calm - N/A   Clear
8:35 PM 23.0 °F - 12.2 °F 63% 30.26 in 10.0 mi Calm Calm - N/A   Clear
8:55 PM 23.0 °F - 10.4 °F 59% 30.27 in 10.0 mi Calm Calm - N/A   Clear
9:15 PM 23.0 °F - 12.2 °F 63% 30.27 in 10.0 mi Calm Calm - N/A   Clear
9:35 PM 21.2 °F 16.4 °F 12.2 °F 68% 30.28 in 10.0 mi ENE 3.5 mph - N/A   Clear
9:55 PM 21.2 °F - 14.0 °F 74% 30.27 in 10.0 mi Calm Calm - N/A   Clear
10:15 PM 21.2 °F - 14.0 °F 74% 30.28 in 10.0 mi Calm Calm - N/A   Clear
10:35 PM 19.4 °F - 12.2 °F 74% 30.28 in 10.0 mi Calm Calm - N/A   Clear
10:55 PM 19.4 °F - 12.2 °F 74% 30.29 in 10.0 mi Calm Calm - N/A   Clear
11:15 PM 19.4 °F - 12.2 °F 74% 30.29 in 10.0 mi Calm Calm - N/A   Clear
11:35 PM 17.6 °F - 12.2 °F 79% 30.29 in 10.0 mi Calm Calm - N/A   Clear
11:55 PM 17.6 °F - 12.2 °F 79% 30.29 in 10.0 mi Calm Calm - N/A   Clear